Location: Chittendens Corners
(41.2320°N, 81.4940°W)
Time: 18:12:48
(UTC+00:00)

CZ-4B R/B - Pass Details

Date: 29 October 2020
Orbit: 389 x 462 km, 97.6° (Epoch: 23 November)

Event Time Altitude Azimuth Distance (km) Brightness Sun altitude
Rises 23:21:32 0° 6° (N) 2,374 4.9 -11.3°
Reaches altitude 10° 23:23:36 10° 360° (N) 1,492 4.0 -11.7°
Maximum altitude 23:26:39 44° 286° (WNW) 570 2.4 -12.2°
Drops below altitude 10° 23:29:36 10° 213° (SSW) 1,446 4.5 -12.8°
Sets 23:31:35 0° 206° (SSW) 2,289 5.5 -13.2°
